Time,TemperatureF,DewpointF,PressureIn,WindDirection,WindDirectionDegrees,WindSpeedMPH,WindSpeedGustMPH,Humidity,HourlyPrecipIn,Conditions,Clouds,dailyrainin,SoftwareType,DateUTC
2013-02-18 00:01:00,31.0,22.0,-100.00,SSE,150,0.0,6.0,67,-99.99,,,-99.99,,2013-02-18 07:01:00,
2013-02-18 00:11:00,31.0,22.0,-100.00,South,170,1.0,2.0,68,-99.99,,,-99.99,,2013-02-18 07:11:00,
2013-02-18 00:21:00,31.0,22.0,-100.00,SW,225,6.0,9.0,69,-99.99,,,-99.99,,2013-02-18 07:21:00,
2013-02-18 00:31:00,31.0,22.0,-100.00,SW,225,6.0,9.0,69,-99.99,,,-99.99,,2013-02-18 07:31:00,
2013-02-18 00:42:00,31.0,22.0,-100.00,SW,225,6.0,9.0,69,-99.99,,,-99.99,,2013-02-18 07:42:00,
2013-02-18 00:51:00,30.0,23.0,-100.00,SW,235,6.0,9.0,76,-99.99,,,-99.99,,2013-02-18 07:51:00,
2013-02-18 01:01:00,29.0,23.0,-100.00,SW,220,4.0,9.0,76,-99.99,,,-99.99,,2013-02-18 08:01:00,
2013-02-18 01:11:00,29.0,23.0,-100.00,West,280,4.0,8.0,77,-99.99,,,-99.99,,2013-02-18 08:11:00,
2013-02-18 01:21:00,29.0,23.0,-100.00,West,280,4.0,8.0,77,-99.99,,,-99.99,,2013-02-18 08:21:00,
2013-02-18 01:32:00,29.0,23.0,-100.00,WSW,245,6.0,7.0,77,-99.99,,,-99.99,,2013-02-18 08:32:00,
2013-02-18 01:41:00,29.0,23.0,-100.00,SW,220,4.0,7.0,77,-99.99,,,-99.99,,2013-02-18 08:41:00,
2013-02-18 01:52:00,29.0,22.0,-100.00,West,275,3.0,9.0,76,-99.99,,,-99.99,,2013-02-18 08:52:00,
2013-02-18 02:02:00,29.0,22.0,-100.00,West,275,3.0,9.0,76,-99.99,,,-99.99,,2013-02-18 09:02:00,
2013-02-18 02:11:00,29.0,22.0,-100.00,West,275,3.0,9.0,76,-99.99,,,-99.99,,2013-02-18 09:11:00,
2013-02-18 02:22:00,28.0,22.0,-100.00,SW,225,6.0,8.0,75,-99.99,,,-99.99,,2013-02-18 09:22:00,
2013-02-18 02:31:00,28.0,21.0,-100.00,SSW,195,2.0,7.0,75,-99.99,,,-99.99,,2013-02-18 09:31:00,
2013-02-18 02:41:00,28.0,21.0,-100.00,SSW,210,1.0,4.0,75,-99.99,,,-99.99,,2013-02-18 09:41:00,
2013-02-18 02:52:00,28.0,21.0,-100.00,SSW,210,1.0,4.0,75,-99.99,,,-99.99,,2013-02-18 09:52:00,
2013-02-18 03:01:00,27.0,20.0,-100.00,SW,215,3.0,7.0,75,-99.99,,,-99.99,,2013-02-18 10:01:00,
2013-02-18 03:11:00,28.0,20.0,-100.00,SW,220,4.0,6.0,74,-99.99,,,-99.99,,2013-02-18 10:11:00,
2013-02-18 03:21:00,27.0,20.0,-100.00,SW,215,0.0,6.0,74,-99.99,,,-99.99,,2013-02-18 10:21:00,
2013-02-18 03:31:00,27.0,20.0,-100.00,SW,215,0.0,6.0,74,-99.99,,,-99.99,,2013-02-18 10:31:00,
2013-02-18 03:41:00,26.0,18.0,-100.00,SW,220,2.0,4.0,73,-99.99,,,-99.99,,2013-02-18 10:41:00,
2013-02-18 03:52:00,24.0,16.0,-100.00,SW,220,3.0,6.0,70,-99.99,,,-99.99,,2013-02-18 10:52:00,
2013-02-18 04:01:00,24.0,16.0,-100.00,SW,220,3.0,6.0,70,-99.99,,,-99.99,,2013-02-18 11:01:00,
2013-02-18 04:11:00,24.0,16.0,-100.00,SW,220,3.0,6.0,70,-99.99,,,-99.99,,2013-02-18 11:11:00,
2013-02-18 04:21:00,25.0,17.0,-100.00,SW,220,4.0,10.0,72,-99.99,,,-99.99,,2013-02-18 11:21:00,
2013-02-18 04:31:00,24.0,17.0,-100.00,WNW,300,6.0,12.0,72,-99.99,,,-99.99,,2013-02-18 11:31:00,
2013-02-18 04:41:00,24.0,17.0,-100.00,WNW,300,6.0,12.0,72,-99.99,,,-99.99,,2013-02-18 11:41:00,
2013-02-18 04:53:00,24.0,17.0,-100.00,SW,235,9.0,14.0,72,-99.99,,,-99.99,,2013-02-18 11:53:00,
2013-02-18 05:01:00,24.0,16.0,-100.00,SW,235,7.0,11.0,73,-99.99,,,-99.99,,2013-02-18 12:01:00,
2013-02-18 05:11:00,24.0,16.0,-100.00,SW,235,7.0,11.0,73,-99.99,,,-99.99,,2013-02-18 12:11:00,
2013-02-18 05:21:00,23.0,16.0,-100.00,SW,215,4.0,7.0,72,-99.99,,,-99.99,,2013-02-18 12:21:00,
2013-02-18 05:31:00,23.0,16.0,-100.00,SW,220,2.0,8.0,72,-99.99,,,-99.99,,2013-02-18 12:31:00,
2013-02-18 05:42:00,23.0,16.0,-100.00,SW,220,2.0,8.0,72,-99.99,,,-99.99,,2013-02-18 12:42:00,
2013-02-18 05:52:00,23.0,16.0,-100.00,SW,220,2.0,8.0,72,-99.99,,,-99.99,,2013-02-18 12:52:00,
2013-02-18 06:02:00,22.0,15.0,-100.00,West,275,4.0,7.0,73,-99.99,,,-99.99,,2013-02-18 13:02:00,
2013-02-18 06:22:00,22.0,15.0,-100.00,SW,215,5.0,11.0,74,-99.99,,,-99.99,,2013-02-18 13:22:00,
2013-02-18 06:32:00,22.0,15.0,-100.00,SW,215,5.0,11.0,74,-99.99,,,-99.99,,2013-02-18 13:32:00,
2013-02-18 06:41:00,22.0,15.0,-100.00,SW,215,3.0,8.0,74,-99.99,,,-99.99,,2013-02-18 13:41:00,
2013-02-18 06:52:00,22.0,15.0,-100.00,SW,225,2.0,5.0,74,-99.99,,,-99.99,,2013-02-18 13:52:00,
2013-02-18 07:02:00,22.0,15.0,-100.00,SW,225,2.0,5.0,74,-99.99,,,-99.99,,2013-02-18 14:02:00,
2013-02-18 07:11:00,22.0,15.0,-100.00,West,265,2.0,6.0,75,-99.99,,,-99.99,,2013-02-18 14:11:00,
2013-02-18 07:21:00,22.0,15.0,-100.00,West,265,2.0,6.0,75,-99.99,,,-99.99,,2013-02-18 14:21:00,
2013-02-18 07:31:00,22.0,15.0,-100.00,South,170,5.0,9.0,76,-99.99,,,-99.99,,2013-02-18 14:31:00,
2013-02-18 07:41:00,22.0,15.0,-100.00,SW,235,5.0,12.0,76,-99.99,,,-99.99,,2013-02-18 14:41:00,
2013-02-18 08:01:00,22.0,15.0,-100.00,SW,225,6.0,9.0,76,-99.99,,,-99.99,,2013-02-18 15:01:00,
2013-02-18 08:11:00,22.0,15.0,-100.00,WSW,245,3.0,8.0,76,-99.99,,,-99.99,,2013-02-18 15:11:00,
2013-02-18 08:21:00,22.0,15.0,-100.00,WSW,245,3.0,8.0,76,-99.99,,,-99.99,,2013-02-18 15:21:00,
2013-02-18 08:31:00,22.0,16.0,-100.00,SW,225,5.0,10.0,76,-99.99,,,-99.99,,2013-02-18 15:31:00,
2013-02-18 08:42:00,22.0,16.0,-100.00,SW,220,4.0,8.0,76,-99.99,,,-99.99,,2013-02-18 15:42:00,
2013-02-18 08:52:00,22.0,16.0,-100.00,SW,215,4.0,12.0,76,-99.99,,,-99.99,,2013-02-18 15:52:00,
2013-02-18 09:01:00,23.0,17.0,-100.00,SW,235,6.0,10.0,76,-99.99,,,-99.99,,2013-02-18 16:01:00,
2013-02-18 09:11:00,23.0,17.0,-100.00,West,280,7.0,11.0,76,-99.99,,,-99.99,,2013-02-18 16:11:00,
2013-02-18 09:21:00,23.0,17.0,-100.00,SW,215,6.0,11.0,76,-99.99,,,-99.99,,2013-02-18 16:21:00,
2013-02-18 09:31:00,24.0,17.0,-100.00,SW,230,6.0,10.0,75,-99.99,,,-99.99,,2013-02-18 16:31:00,
2013-02-18 09:42:00,24.0,17.0,-100.00,SW,230,6.0,10.0,75,-99.99,,,-99.99,,2013-02-18 16:42:00,
2013-02-18 09:51:00,24.0,17.0,-100.00,SSW,210,7.0,12.0,75,-99.99,,,-99.99,,2013-02-18 16:51:00,
2013-02-18 10:02:00,24.0,17.0,-100.00,SSW,210,7.0,12.0,75,-99.99,,,-99.99,,2013-02-18 17:02:00,
2013-02-18 10:11:00,24.0,17.0,-100.00,SSW,210,7.0,12.0,75,-99.99,,,-99.99,,2013-02-18 17:11:00,
2013-02-18 10:21:00,25.0,18.0,-100.00,SW,215,6.0,14.0,74,-99.99,,,-99.99,,2013-02-18 17:21:00,
2013-02-18 10:31:00,25.0,18.0,-100.00,SW,235,7.0,15.0,73,-99.99,,,-99.99,,2013-02-18 17:31:00,
2013-02-18 10:43:00,26.0,18.0,-100.00,SW,220,10.0,16.0,72,-99.99,,,-99.99,,2013-02-18 17:43:00,
2013-02-18 10:52:00,26.0,18.0,-100.00,SW,220,10.0,16.0,72,-99.99,,,-99.99,,2013-02-18 17:52:00,
2013-02-18 11:01:00,26.0,18.0,-100.00,SW,215,8.0,13.0,71,-99.99,,,-99.99,,2013-02-18 18:01:00,
2013-02-18 11:11:00,29.0,21.0,-100.00,SW,235,7.0,15.0,72,-99.99,,,-99.99,,2013-02-18 18:11:00,
2013-02-18 11:21:00,29.0,21.0,-100.00,SW,235,7.0,15.0,72,-99.99,,,-99.99,,2013-02-18 18:21:00,
2013-02-18 11:32:00,32.0,23.0,-100.00,SSW,205,2.0,16.0,70,-99.99,,,-99.99,,2013-02-18 18:32:00,
2013-02-18 11:42:00,32.0,23.0,-100.00,SSW,205,2.0,16.0,70,-99.99,,,-99.99,,2013-02-18 18:42:00,
2013-02-18 11:52:00,31.0,22.0,-100.00,SSW,205,6.0,13.0,69,-99.99,,,-99.99,,2013-02-18 18:52:00,
2013-02-18 12:11:00,32.0,24.0,-100.00,SW,215,11.0,16.0,70,-99.99,,,-99.99,,2013-02-18 19:11:00,
2013-02-18 12:21:00,32.0,23.0,-100.00,SW,225,9.0,16.0,69,-99.99,,,-99.99,,2013-02-18 19:21:00,
2013-02-18 12:32:00,32.0,23.0,-100.00,SSW,210,8.0,18.0,68,-99.99,,,-99.99,,2013-02-18 19:32:00,
2013-02-18 12:42:00,33.0,24.0,-100.00,SW,220,9.0,20.0,68,-99.99,,,-99.99,,2013-02-18 19:42:00,
2013-02-18 12:51:00,34.0,25.0,-100.00,SW,220,9.0,17.0,68,-99.99,,,-99.99,,2013-02-18 19:51:00,
2013-02-18 13:01:00,33.0,24.0,-100.00,SSW,210,7.0,19.0,68,-99.99,,,-99.99,,2013-02-18 20:01:00,
2013-02-18 13:21:00,34.0,25.0,-100.00,SW,215,10.0,17.0,67,-99.99,,,-99.99,,2013-02-18 20:21:00,
2013-02-18 13:32:00,34.0,25.0,-100.00,SW,215,10.0,17.0,67,-99.99,,,-99.99,,2013-02-18 20:32:00,
2013-02-18 13:41:00,35.0,25.0,-100.00,SSW,195,12.0,19.0,67,-99.99,,,-99.99,,2013-02-18 20:41:00,
2013-02-18 13:52:00,35.0,25.0,-100.00,SSW,195,12.0,19.0,67,-99.99,,,-99.99,,2013-02-18 20:52:00,
2013-02-18 14:02:00,35.0,25.0,-100.00,SW,225,9.0,21.0,66,-99.99,,,-99.99,,2013-02-18 21:02:00,
2013-02-18 14:11:00,35.0,25.0,-100.00,SW,225,6.0,15.0,66,-99.99,,,-99.99,,2013-02-18 21:11:00,
2013-02-18 14:21:00,35.0,25.0,-100.00,SW,225,6.0,15.0,66,-99.99,,,-99.99,,2013-02-18 21:21:00,
2013-02-18 14:32:00,35.0,24.0,-100.00,SW,220,9.0,18.0,65,-99.99,,,-99.99,,2013-02-18 21:32:00,
2013-02-18 14:42:00,35.0,24.0,-100.00,SW,220,9.0,18.0,65,-99.99,,,-99.99,,2013-02-18 21:42:00,
2013-02-18 14:51:00,35.0,24.0,-100.00,SW,220,9.0,17.0,65,-99.99,,,-99.99,,2013-02-18 21:51:00,
2013-02-18 15:02:00,35.0,24.0,-100.00,SW,220,9.0,21.0,64,-99.99,,,-99.99,,2013-02-18 22:02:00,
2013-02-18 15:22:00,36.0,25.0,-100.00,NW,310,2.0,15.0,63,-99.99,,,-99.99,,2013-02-18 22:22:00,
2013-02-18 15:32:00,36.0,25.0,-100.00,SW,215,9.0,17.0,63,-99.99,,,-99.99,,2013-02-18 22:32:00,
2013-02-18 15:41:00,36.0,25.0,-100.00,SW,220,12.0,17.0,63,-99.99,,,-99.99,,2013-02-18 22:41:00,
2013-02-18 15:53:00,35.0,24.0,-100.00,SW,230,5.0,17.0,63,-99.99,,,-99.99,,2013-02-18 22:53:00,
2013-02-18 16:01:00,35.0,24.0,-100.00,SW,230,5.0,17.0,63,-99.99,,,-99.99,,2013-02-18 23:01:00,
2013-02-18 16:21:00,34.0,23.0,-100.00,SW,220,9.0,17.0,63,-99.99,,,-99.99,,2013-02-18 23:21:00,
2013-02-18 16:32:00,34.0,23.0,-100.00,SW,215,7.0,19.0,63,-99.99,,,-99.99,,2013-02-18 23:32:00,
2013-02-18 16:41:00,34.0,23.0,-100.00,SSW,210,6.0,12.0,62,-99.99,,,-99.99,,2013-02-18 23:41:00,
2013-02-18 16:53:00,34.0,23.0,-100.00,SSW,210,6.0,12.0,62,-99.99,,,-99.99,,2013-02-18 23:53:00,
2013-02-18 17:01:00,34.0,23.0,-100.00,SSW,210,6.0,14.0,64,-99.99,,,-99.99,,2013-02-19 00:01:00,
2013-02-18 17:11:00,33.0,23.0,-100.00,SW,215,7.0,14.0,64,-99.99,,,-99.99,,2013-02-19 00:11:00,
2013-02-18 17:21:00,34.0,23.0,-100.00,SW,220,6.0,13.0,64,-99.99,,,-99.99,,2013-02-19 00:21:00,
2013-02-18 17:33:00,33.0,23.0,-100.00,SW,225,5.0,12.0,64,-99.99,,,-99.99,,2013-02-19 00:33:00,
2013-02-18 17:42:00,33.0,23.0,-100.00,SW,235,4.0,13.0,65,-99.99,,,-99.99,,2013-02-19 00:42:00,
2013-02-18 17:52:00,33.0,23.0,-100.00,SSW,205,4.0,10.0,65,-99.99,,,-99.99,,2013-02-19 00:52:00,
2013-02-18 18:02:00,33.0,22.0,-100.00,WSW,240,1.0,6.0,65,-99.99,,,-99.99,,2013-02-19 01:02:00,
2013-02-18 18:21:00,32.0,22.0,-100.00,SSE,160,1.0,8.0,65,-99.99,,,-99.99,,2013-02-19 01:21:00,
2013-02-18 18:32:00,32.0,22.0,-100.00,WNW,295,0.0,2.0,66,-99.99,,,-99.99,,2013-02-19 01:32:00,
2013-02-18 18:42:00,32.0,22.0,-100.00,WNW,295,0.0,2.0,66,-99.99,,,-99.99,,2013-02-19 01:42:00,
2013-02-18 18:55:00,31.0,21.0,-100.00,West,270,1.0,3.0,66,-99.99,,,-99.99,,2013-02-19 01:55:00,
2013-02-18 19:01:00,31.0,21.0,-100.00,West,270,1.0,3.0,66,-99.99,,,-99.99,,2013-02-19 02:01:00,
2013-02-18 19:12:00,30.0,21.0,-100.00,WNW,295,0.0,0.0,68,-99.99,,,-99.99,,2013-02-19 02:12:00,
2013-02-18 19:22:00,30.0,21.0,-100.00,WNW,295,0.0,0.0,68,-99.99,,,-99.99,,2013-02-19 02:22:00,
2013-02-18 19:32:00,29.0,20.0,-100.00,West,280,0.0,1.0,69,-99.99,,,-99.99,,2013-02-19 02:32:00,
2013-02-18 19:42:00,28.0,20.0,-100.00,WSW,250,2.0,4.0,69,-99.99,,,-99.99,,2013-02-19 02:42:00,
2013-02-18 19:52:00,28.0,20.0,-100.00,WSW,250,2.0,4.0,69,-99.99,,,-99.99,,2013-02-19 02:52:00,
2013-02-18 20:04:00,28.0,20.0,-100.00,SW,220,0.0,2.0,70,-99.99,,,-99.99,,2013-02-19 03:04:00,
2013-02-18 20:12:00,27.0,20.0,-100.00,ESE,115,0.0,1.0,72,-99.99,,,-99.99,,2013-02-19 03:12:00,
2013-02-18 20:21:00,27.0,20.0,-100.00,ESE,115,0.0,1.0,72,-99.99,,,-99.99,,2013-02-19 03:21:00,
2013-02-18 20:33:00,27.0,20.0,-100.00,WSW,250,0.0,1.0,73,-99.99,,,-99.99,,2013-02-19 03:33:00,
2013-02-18 20:42:00,26.0,19.0,-100.00,SE,130,0.0,1.0,74,-99.99,,,-99.99,,2013-02-19 03:42:00,
2013-02-18 20:52:00,26.0,19.0,-100.00,SE,130,0.0,1.0,74,-99.99,,,-99.99,,2013-02-19 03:52:00,
2013-02-18 21:02:00,26.0,19.0,-100.00,SE,130,0.0,1.0,74,-99.99,,,-99.99,,2013-02-19 04:02:00,
2013-02-18 21:12:00,26.0,19.0,-100.00,South,175,0.0,0.0,75,-99.99,,,-99.99,,2013-02-19 04:12:00,
2013-02-18 21:21:00,25.0,16.0,-100.00,South,185,0.0,1.0,69,-99.99,,,-99.99,,2013-02-19 04:21:00,
2013-02-18 21:32:00,24.0,15.0,-100.00,SE,130,0.0,1.0,66,-99.99,,,-99.99,,2013-02-19 04:32:00,
2013-02-18 21:42:00,24.0,12.0,-100.00,NE,50,0.0,2.0,61,-99.99,,,-99.99,,2013-02-19 04:42:00,
2013-02-18 21:51:00,24.0,12.0,-100.00,NE,50,0.0,2.0,61,-99.99,,,-99.99,,2013-02-19 04:51:00,
2013-02-18 22:01:00,23.0,11.0,-100.00,East,85,0.0,2.0,60,-99.99,,,-99.99,,2013-02-19 05:01:00,
2013-02-18 22:12:00,23.0,11.0,-100.00,NE,50,1.0,4.0,60,-99.99,,,-99.99,,2013-02-19 05:12:00,
2013-02-18 22:22:00,23.0,11.0,-100.00,NE,50,1.0,4.0,60,-99.99,,,-99.99,,2013-02-19 05:22:00,
2013-02-18 22:32:00,22.0,11.0,-100.00,NNE,20,2.0,4.0,61,-99.99,,,-99.99,,2013-02-19 05:32:00,
2013-02-18 22:42:00,22.0,11.0,-100.00,NNE,20,2.0,4.0,61,-99.99,,,-99.99,,2013-02-19 05:42:00,
2013-02-18 22:52:00,22.0,11.0,-100.00,NE,40,1.0,4.0,61,-99.99,,,-99.99,,2013-02-19 05:52:00,
2013-02-18 23:02:00,21.0,11.0,-100.00,ENE,65,1.0,5.0,62,-99.99,,,-99.99,,2013-02-19 06:02:00,
2013-02-18 23:11:00,21.0,10.0,-100.00,NE,55,0.0,3.0,62,-99.99,,,-99.99,,2013-02-19 06:11:00,
2013-02-18 23:21:00,21.0,10.0,-100.00,NE,55,0.0,3.0,62,-99.99,,,-99.99,,2013-02-19 06:21:00,
2013-02-18 23:32:00,21.0,10.0,-100.00,NNE,20,0.0,4.0,62,-99.99,,,-99.99,,2013-02-19 06:32:00,
2013-02-18 23:41:00,20.0,10.0,-100.00,NE,55,2.0,4.0,63,-99.99,,,-99.99,,2013-02-19 06:41:00,
2013-02-18 23:52:00,20.0,10.0,-100.00,NE,55,2.0,4.0,63,-99.99,,,-99.99,,2013-02-19 06:52:00,